User: anonymous   Login
Location: Unspecified
(0.0000°N, 0.0000°E)
Time: 12:23:41
(UTC+02:00)
Language:

Meteor PRIRODA - Orbit

View from above orbital plane
View from above orbital plane
View from above satellite
View from above satellite

Ground track
Ground track

The orbit data is extracted from the following two-line orbital elements,

1 12585U 81065A   15247.55646983  .00001750  00000-0  88928-4 0  9998
2 12585  97.3568 229.3456 0016457 152.0415 324.3796 15.18057272863327
Epoch (UTC): 04 September 2015 13:21:18
Eccentricity: 0.0016457
inclination: 97.3568°
perigee height: 500 km
apogee height: 523 km
right ascension of ascending node: 229.3456°
argument of perigee: 152.0415°
revolutions per day: 15.18057272
mean anomaly at epoch: 324.3796°
orbit number at epoch: 86332

The dashed part of the orbit path shows where the satellite is in the earth's shadow,  

DLR